DELTA 1 DEB

Satellite information

Favourite Embed

Satellite Type and Status

DEBRISIN ORBIT

Key statistics

Satellite DELTA 1 DEB at a glance.

Uptime

18398

Days in orbit

Revolutions

≈ 12.7

Per day

Orbit

SSO

Sun Synchronous Orbit

Inclination

99.8

Latest

Satellite identification and parameters

Extended collection of information and parameters for DELTA 1 DEB.

Object identification

Identified? True

Debris? True

Object name: DELTA 1 DEB

International designator: 1975-052HT

Object number (NORAD): 21599

Object ID (CCSDS): 21599

Country: UNITED STATES OF AMERICA (US)

Current information (Y/N): Y

RCS size: SMALL

Orbital parameters

Period: 113.156 minutes

Inclination: 99.8257 deg

SMA: 7749.608 km

Apoapsis: 1712.132 km

Periapsis: 1030.814 km

RAAN: 223.7179 deg

Eccentricy: 0.04395826

Argument of periapsis: 307.04 deg

Mean anomaly: 77.2059 deg

Mean motion: 12.72574282 rev/day

Mean motion (dot): 0.0000065 rev/day2

B* drag term: 0.0022632295 1/REarth

Two-line elements (TLE)

Creation date: Oct. 25, 2025, 3:11 a.m.

Reference frame: TEME

Reference center: EARTH

Epoch: Oct. 24, 2025, 6:14 p.m. UTC

TLE line 0: 0 DELTA 1 DEB

TLE line 1: 1 21599U 75052HT 25297.76013395 .00000650 00000-0 22632-2 0 9992

TLE line 2: 2 21599 99.8257 223.7179 0439583 307.0400 77.2059 12.72574282589366

Live tracking on map

Real-time ground track for satellite DELTA 1 DEB.

In-orbit conjunctions

A list of the most updated potential collisions computed for object DELTA 1 DEB.

Target Orbit TCA Probability of collision Miss distance Type
RADIO 2 LEO 2024-12-11 06:47:34 0.0002215174 59.0 (m) PAYLOAD
DELTA 1 DEB SSO 2024-11-13 21:09:30 0.0004930579 188.0 (m) DEBRIS

Associated space launch

Experimental meteorological satellite

DELTA 1 DEB was lifted into orbit during the mission ‘Delta 2910 | Nimbus 6’, on board a Delta 2910 space rocket.

The launch took place on June 12, 1975, 8:12 a.m. from Space Launch Complex 2W.

For more information about the launch, click the button.

Launch to space Delta 2910 | Nimbus 6
Delta 2910 | Nimbus 6

Agency: N/A

Status: Launch Successful

Launch date: June 12, 1975, 8:12 a.m. UTC

Rocket: Delta 2910

Launch pad: Space Launch Complex 2W

Location: Vandenberg SFB, CA, USA

...

Latest news about this satellite

There are no fresh news available about this satellite. Check back as we update our databases every day.


Newsletter sign-up

Weekly statistics, charts and insights to help you stay on top of the space industry.